Location: Lake Lucerne
(45.5315°N, 88.8489°W)
Time: 09:59:34
(UTC-06:00)

N. Korean satellite - Visible Passes

Search period start: 18 February 2019 00:00
Search period end: 28 February 2019 00:00
Orbit: 457 x 510 km, 97.2° (Epoch: 17 February)

Date Brightness Start Highest point End Pass type
(mag) Time Alt. Az. Time Alt. Az. Time Alt. Az.
18 Feb 8.4 05:43:34 10° NNE 05:46:47 33° E 05:49:56 10° SSE visible
18 Feb 9.0 17:54:34 10° SSW 17:57:50 30° W 18:01:05 10° NNW visible
19 Feb 9.7 05:19:30 10° NE 05:21:53 17° E 05:24:15 10° SE visible
21 Feb 7.1 06:02:35 10° NNE 06:06:01 61° E 06:09:25 10° S visible
21 Feb 10.0 18:14:36 10° SW 18:17:10 18° W 18:19:43 10° NW visible
22 Feb 8.8 05:38:08 10° NE 05:41:12 29° E 05:44:13 10° SSE visible
23 Feb 9.9 05:14:12 10° NE 05:16:17 15° E 05:18:20 10° SE visible
24 Feb 10.6 18:35:40 10° WSW 18:36:32 11° W 18:37:23 10° WNW visible
25 Feb 7.5 05:57:03 10° NNE 06:00:26 51° E 06:03:47 10° S visible
25 Feb 9.8 18:08:49 10° SW 18:11:34 20° W 18:14:19 10° NW visible
26 Feb 9.1 05:32:40 10° NE 05:35:34 25° E 05:38:27 10° SSE visible
27 Feb 10.0 05:08:58 10° ENE 05:10:37 13° E 05:12:18 10° ESE visible
